Гран При Италии: первая тренировка

Гран При Италии: первая тренировка

Пятницу команды начали с поиска настроек для трассы с самой низкой прижимной силой по ходу сезона. Команды привезли специальные аэродинамические пакеты, которые должны помочь найти компромисс между скоростью на прямых и эффективным прохождением поворотов.

Четыре команды посадили за руль молодых пилотов. 23-летний испанец Роберто Мери дебютировал за рулем Формулы 1, сменив Камуи Кобаяши в Caterham. Гидо ван дер Гарде сел за руль машины Адриана Сутила в Sauber, Шарль Пик заменил Романа Грожана в Lotus, а Даниэль Хункаделла проехал десять кругов за рулём Force India и уступил кокпит Серхио Пересу.

Не считая небольших выездов за пределы трассы, первая сессия прошла без серьезных проблем. Лишь Риккардо пришлось сократить программу из-за проблем с машиной. Протокол возглавил Льюис Хэмилтон – 1:26.187. Недалеко от него в протоколе расположились Дженсон Баттон, Нико Росберг и Фернандо Алонсо. Остальные пилоты отстали больше секунды.

 
Дата05 Сентября 2014Погодаоблачно
Киевское время11:00-12:30 ч.Температура21-22°C
Местное время10:00-11:30 ч.Влажность68-73%
Участники23Давление994 mBar
Рекорд в гонке1:21.046 мин.Асфальт26-28°C
Рекорд в квалификации1:20.089 мин.Ветер2 м/с, северо-западный

Результаты

Поз.ПилотКомандаВремяОтставаниеот пред.Круги
144L. HamiltonMercedes1:26.187  25
222J. ButtonMcLaren1:26.810+0:00.623+0:00.62327
36N. RosbergMercedes1:26.995+0:00.808+0:00.18526
414F. AlonsoFerrari1:27.169+0:00.982+0:00.17423
520K. MagnussenMcLaren1:27.228+0:01.041+0:00.05930
61S. VettelRed Bull1:27.271+0:01.084+0:00.04327
77K. RäikkönenFerrari1:27.493+0:01.306+0:00.22227
811S. PerezForce India1:27.687+0:01.500+0:00.19413
926D. KwjatToro Rosso1:27.741+0:01.554+0:00.05433
1027N. HülkenbergForce India1:28.112+0:01.925+0:00.37123
1121E. GutierrezSauber1:28.114+0:01.927+0:00.00221
1277V. BottasWilliams1:28.148+0:01.961+0:00.03420
1319F. MassaWilliams1:28.150+0:01.963+0:00.00221
1425J. VergneToro Rosso1:28.300+0:02.113+0:00.15030
1536G. van der GardeSauber1:28.429+0:02.242+0:00.12912
163D. RicciardoRed Bull1:28.487+0:02.300+0:00.05819
1734D. JuncadellaForce India1:29.192+0:03.005+0:00.70510
1813P. MaldonadoLotus1:29.512+0:03.325+0:00.32024
194M. ChiltonMarussia1:30.017+0:03.830+0:00.50525
2017J. BianchiMarussia1:30.081+0:03.894+0:00.06427
2130C. PicLotus1:30.125+0:03.938+0:00.04423
2245R. MerhiCaterham1:30.704+0:04.517+0:00.57929
239M. EricssonCaterham1:30.948+0:04.761+0:00.24416
 107 % барьер1:32.220 
от пред. = от предыдущего


Написати коментар
Показати коментарі
Про цю статтю
Серія Формула 1
Тип статті Важливі новини